Regional Weather Roundup
Issued by NWS

Home | Current Version | Previous Version | Text Only | Print | Product List | Glossary On
Versions: 1 2 3 4 5 6 7 8 9 10 11 12 13 14 15 16 17 18 19 20 21 22 23 24 25 26 27 28 29 30 31 32 33 34 35 36 37 38 39 40 41 42 43 44 45 46 47 48 49 50
000
ASUS44 KLIX 021510
RWRLA
LOUISIANA WEATHER ROUNDUP
NATIONAL WEATHER SERVICE NEW ORLEANS LA
1000 AM CDT THU OCT 02 2014

NOTE: "FAIR" INDICATES FEW OR NO CLOUDS BELOW 12,000 FEET WITH NO
      SIGNIFICANT WEATHER AND/OR OBSTRUCTIONS TO VISIBILITY.
      SKY/WX - SKY CONDITION AND SIGNIFICANT WEATHER.
      TMP - AIR TEMPERATURE.    DP   - DEWPOINT TEMPERATURE.
      RH  - RELATIVE HUMIDITY.  PRES - PRESSURE.
      HX  - HEAT INDEX.         WCI  - WIND CHILL INDEX.

*  THESE STATIONS ARE NOT NWS OR FAA STATIONS AND ARE NOT UNDER
   NWS QUALITY CONTROL.

LAZ040-048-061>063-065-066-069-021600-
SOUTHEAST LOUISIANA

CITY           SKY/WX    TMP DP  RH WIND       PRES   REMARKS
N.O. AUDUBON     N/A     84  79  83 MISG        N/A  HX  96
N.O. INTL ARPT PTSUNNY   84  77  79 S10       30.00R
N.O. LAKEFRONT PTSUNNY   84  76  76 S12       30.01R
N.O. DOWNTOWN* PTSUNNY   84  75  74 S10       30.01R
SLIDELL        PTSUNNY   85  75  72 S12       30.00S
BATON ROUGE    CLOUDY    83  76  79 S10       29.99R
BOOTHVILLE     FAIR      84  79  85 S6        30.02R HX  96
BELLE CHASSE   PTSUNNY   84  75  74 S9        30.00S
BOGALUSA*      FAIR      85  74  70 SW6       30.02S
GALLIANO*      NOT AVBL
NEW ROADS*     CLOUDY    81  77  88 SE7       29.98S
GONZALES*      PTSUNNY   83  81  93 SE8       29.99R HX  98
HAMMOND*       FAIR      84  73  70 S7        30.02R
HOUMA*         PTSUNNY  N/A N/A N/A S9        29.99S
PORT FOURCHON* MOSUNNY   84  79  84 S8        30.04R HX  96

$$

LAZ041-044-053-054-021600-
SOUTHWEST LOUISIANA

CITY           SKY/WX    TMP DP  RH WIND       PRES   REMARKS
LAKE CHARLES   PTSUNNY   85  78  80 S10       29.95R HX  96
LAFAYETTE      PTSUNNY   84  78  82 S9        29.97R HX  95
PATTERSON      PTSUNNY   84  81  89 S8        30.01R HX  98
SALT POINT       N/A     87  81  82 VRB3      29.97R HX 104
NEW IBERIA     FAIR      84  77  79 S9        29.98R
CHENAULT AIRPK PTSUNNY   82  79  89 S7        29.94S

$$

LAZ027-028-021600-
CENTRAL LOUISIANA

CITY           SKY/WX    TMP DP  RH WIND       PRES   REMARKS
FORT POLK      CLOUDY    82  77  83 S15       29.94R
ALEXANDRIA INT PTSUNNY   84  75  74 S12       29.93R
ALEXANDRIA     CLOUDY    82  76  81 S12       29.95S

$$

LAZ001-002-021600-
NORTHWEST LOUISIANA

CITY           SKY/WX    TMP DP  RH WIND       PRES   REMARKS
SHREVEPORT     PTSUNNY   81  76  84 S6        29.90S
BARKSDALE AFB  FAIR      82  75  79 S12       29.91R
DTN SHREVEPORT PTSUNNY   81  74  79 S9        29.90S

$$

LAZ014-016-021600-
NORTHEAST LOUISIANA

CITY           SKY/WX    TMP DP  RH WIND       PRES   REMARKS
MONROE         CLOUDY    81  75  83 S6        29.95S
TALLULAH       CLOUDY    81  74  79 S9        29.97S

$$




USA.gov is the U.S. government's official web portal to all federal, state and local government web resources and services.